SCP
0 1 2 3 3 3 2 2 2 2 1 1 1 0 0 0 0 0 0 0 0 1 1 0 0 0 0 0 0 0 0 0 0 1 1 0 0 0 0 0 0 0 0
0 1 3 4 4 3 2 2 2 2 1 1 0 0 0 0 0 0 0 0 0 0 0 0 0 0 0 0 0 0 0 0 0 0 0 0 0 0 0 0 0 0 1
0 1 3 4 5 4 2 2 1 1 1 1 0 0 0 0 0 0 0 0 0 0 0 0 0 0 0 0 0 0 0 0 0 0 0 0 0 0 0 0 0 0 1
0 1 3 5 5 4 2 1 1 1 1 1 0 0 0 0 0 0 0 0 0 0 0 0 0 0 0 0 0 0 0 0 0 0 0 0 0 0 0 0 0 0 0
0 1 3 5 5 4 2 1 1 2 1 1 0 0 0 0 0 0 0 0 0 0 0 0 0 0 0 0 0 0 0 0 0 0 0 0 0 0 0 0 0 0 0
1 2 3 5 5 4 2 1 1 2 1 1 0 0 0 0 0 0 0 0 0 0 0 0 0 0 0 0 0 0 0 0 0 0 0 0 0 0 0 0 0 0 0
1 2 3 5 5 3 2 1 2 2 1 1 0 0 0 0 0 0 0 0 0 0 0 0 0 0 0 0 0 0 0 0 0 0 0 0 0 0 0 0 0 0 0
1 2 3 5 4 3 2 2 2 2 1 1 0 0 0 0 0 0 0 0 0 0 0 0 0 0 0 0 0 0 0 0 0 0 0 0 0 0 0 0 0 0 0
1 2 3 4 3 2 2 2 2 2 2 1 0 0 0 0 0 0 0 0 0 0 0 0 0 0 0 0 0 0 0 0 0 0 0 0 0 0 0 0 0 0 0
1 2 3 4 3 2 1 1 2 2 1 1 0 0 0 0 0 0 0 0 0 0 0 0 0 0 0 0 0 0 0 0 0 0 0 0 0 0 0 0 0 0 0
1 2 3 3 3 2 2 2 2 2 1 1 0 0 0 0 0 0 0 0 0 0 0 0 0 0 0 0 0 0 0 0 0 0 0 0 0 0 0 0 0 0 0
1 2 2 3 3 3 3 2 2 1 1 0 0 0 0 0 0 0 0 0 0 0 0 0 0 0 0 0 0 0 0 0 0 0 0 0 0 0 0 0 0 0 0
1 1 2 3 4 4 3 3 2 1 0 0 0 0 0 0 0 0 0 0 0 0 0 0 0 0 0 0 0 0 0 0 0 0 0 0 0 0 0 0 0 0 0
1 1 2 3 4 4 3 3 2 1 0 0 0 0 0 0 0 0 0 0 0 0 0 0 0 0 0 0 0 0 0 0 0 0 0 0 0 0 0 0 0 0 0
0 1 1 2 3 3 3 2 1 1 0 0 0 0 0 0 0 0 0 0 0 0 0 0 0 0 0 0 0 0 0 0 0 0 0 0 0 0 0 0 0 0 0
0 0 1 2 3 3 2 2 1 0 0 0 0 0 0 0 0 0 0 0 0 0 0 0 0 0 0 0 0 0 0 0 0 0 0 0 0 0 0 0 0 0 0
0 0 1 2 2 3 2 2 1 0 0 0 0 0 0 0 0 0 0 0 0 0 0 0 0 0 0 0 0 0 0 0 0 0 0 0 0 0 0 0 0 0 0
0 0 1 1 2 2 2 2 1 0 0 0 0 0 0 0 0 0 0 0 0 0 0 0 0 0 0 0 0 0 0 0 0 0 0 0 0 0 0 0 0 0 0
1 1 1 1 2 2 2 2 1 0 0 0 0 0 0 0 0 0 0 0 0 0 0 0 0 0 0 0 0 0 0 0 0 0 0 0 0 0 0 0 0 0 0
0 1 1 1 2 2 2 1 1 0 0 0 0 0 0 0 0 0 0 0 0 0 0 0 0 0 0 0 0 0 0 0 0 0 0 0 0 0 0 0 0 0 0
0 1 1 1 2 2 2 1 1 0 0 0 0 0 0 0 0 0 0 0 0 0 0 0 0 0 0 0 0 0 0 0 0 0 0 0 0 0 0 0 0 0 0
0 0 1 1 2 2 2 1 1 0 0 0 0 0 0 0 0 0 0 0 0 0 0 0 0 0 0 0 0 0 0 0 0 0 0 0 0 0 0 0 0 0 0
0 0 0 1 2 2 2 1 1 0 0 0 0 0 0 0 0 0 0 0 0 0 0 0 0 0 0 0 0 0 0 0 0 0 0 0 0 0 0 0 0 0 0
0 0 0 1 1 2 2 1 1 0 0 0 0 0 0 0 0 0 0 0 0 0 0 0 0 0 0 0 0 0 0 0 0 0 0 0 0 0 0 0 0 0 0
0 0 0 0 1 1 1 1 0 0 0 0 0 0 0 0 0 0 0 0 0 0 0 0 0 0 0 0 0 0 0 0 0 0 0 0 0 0 0 0 0 0 0
0 0 0 0 1 1 1 1 0 0 0 0 0 0 0 0 0 0 0 0 0 0 0 0 0 0 0 0 0 0 0 0 0 0 0 0 0 0 0 0 0 0 0
Wind_Speed
6 7 16 16 16 15 15 14 13 13 12 12 12 12 11 11 11 11 11 12 12 12 12 13 13 13 13 13 14 14 15 15 15 15 14 14 14 14 13 13 12 8 14
9 10 18 17 17 16 15 14 14 13 12 12 12 11 11 11 11 11 11 11 12 12 12 13 13 13 13 13 13 13 14 14 14 14 13 12 12 13 13 12 12 8 13
11 11 14 18 18 17 15 14 14 13 12 12 11 11 11 10 10 10 10 11 11 12 12 12 12 12 12 12 12 12 13 13 12 12 11 6 6 12 12 12 12 12 12
12 10 11 18 18 17 16 15 15 14 13 12 11 11 11 10 10 10 10 10 11 11 11 11 11 11 11 11 11 11 11 12 11 11 6 5 5 9 11 12 12 12 12
10 9 12 18 18 17 16 16 15 14 13 12 11 11 10 10 10 10 10 10 10 9 10 10 10 10 10 10 10 10 10 10 11 9 5 5 5 8 11 11 11 11 11
9 8 11 19 19 18 17 16 15 15 14 13 12 11 10 10 10 10 9 9 9 8 8 9 8 8 8 9 9 9 9 9 8 5 5 5 4 7 10 10 9 10 10
10 8 10 18 19 18 17 17 16 15 14 13 12 12 11 10 10 10 9 9 8 8 8 8 7 8 7 8 8 9 8 8 5 4 4 4 4 7 8 8 9 9 9
11 9 9 18 18 18 18 17 16 16 14 14 13 12 11 11 10 10 9 8 8 7 7 7 7 7 7 7 7 8 7 7 5 4 3 3 4 6 7 7 7 8 8
8 8 8 9 13 17 17 17 16 15 15 14 13 12 12 11 10 10 9 8 7 7 7 6 6 6 6 6 6 6 6 7 4 2 3 2 4 5 6 6 7 7 7
7 8 7 7 8 9 10 15 15 14 14 14 13 11 10 10 10 9 8 8 7 7 6 6 5 5 5 5 5 5 6 6 3 2 2 2 3 4 4 5 6 6 6
9 8 7 7 8 8 8 10 12 12 13 12 10 11 9 5 4 5 5 7 7 7 6 5 5 4 4 4 4 5 5 2 2 1 1 2 3 3 3 4 4 5 5
15 13 9 9 8 8 8 7 6 6 7 6 5 6 5 4 4 4 5 6 6 5 5 5 4 4 4 2 2 4 2 1 1 1 2 3 2 2 2 2 3 3 4
15 14 12 10 9 9 6 6 4 4 4 5 7 7 5 4 3 3 2 2 2 2 1 2 2 2 2 1 1 1 1 0 0 1 2 4 3 2 2 2 2 2 3
12 15 13 12 10 9 7 6 6 5 5 5 6 7 6 4 3 3 2 2 2 1 2 1 1 1 1 1 1 1 1 1 1 1 2 4 4 4 3 3 3 3 3
13 14 14 13 13 11 8 7 7 7 6 6 6 7 7 5 5 4 3 3 3 2 2 2 2 1 1 1 1 2 2 2 2 2 2 5 5 5 5 4 4 4 4
15 15 14 15 14 12 10 9 8 7 7 6 6 7 8 6 6 5 4 4 3 3 3 3 3 2 1 1 2 2 2 2 2 3 2 3 5 6 6 6 5 6 6
15 14 16 16 15 14 13 11 8 7 8 8 7 8 9 8 7 6 5 5 4 4 4 3 2 2 2 2 2 3 2 3 3 3 3 2 3 5 6 7 7 7 7
12 13 16 15 16 16 14 12 9 8 8 8 7 8 9 9 8 7 6 6 5 4 4 3 3 2 2 2 2 2 2 2 4 4 3 3 2 2 4 7 8 8 8
14 14 15 16 17 18 16 11 9 8 9 8 7 8 9 10 10 8 7 6 6 5 4 4 3 3 3 3 3 2 3 3 4 4 4 4 4 3 3 5 7 8 8
13 14 15 16 16 15 12 8 7 7 8 7 8 9 10 10 11 9 7 7 6 5 5 4 4 3 3 3 2 2 3 4 3 4 5 4 4 4 4 4 3 5 8
12 14 15 16 16 13 11 11 11 11 10 9 10 11 12 11 11 10 8 7 7 7 7 7 4 4 3 2 1 2 3 3 4 4 3 3 4 4 4 4 3 3 3
14 15 16 17 17 16 14 13 10 9 8 9 7 9 11 12 12 11 10 9 8 7 7 7 5 4 3 4 3 1 3 4 3 3 3 4 4 3 4 4 4 4 3
13 16 16 17 18 18 16 9 6 5 3 5 8 10 12 13 13 12 12 10 9 9 8 9 8 7 5 4 4 4 3 4 3 3 3 3 3 3 4 3 4 5 5
13 13 15 16 17 17 16 13 14 12 13 13 10 10 10 12 13 13 12 12 10 9 9 9 9 7 6 5 4 4 4 3 2 3 3 2 3 4 4 4 4 5 5
11 11 12 14 16 16 17 18 17 15 13 8 7 9 10 10 12 12 12 12 11 10 10 9 9 9 7 6 5 4 4 2 3 3 4 3 2 3 4 4 4 4 5
7 7 9 12 14 15 17 18 18 18 14 10 11 12 10 8 9 12 12 12 12 10 11 10 10 11 9 8 6 5 5 4 5 5 6 5 4 3 3 4 4 4 4
Wind_Direction
188 182 179 168 163 157 152 149 144 139 134 128 123 119 114 110 106 103 98 95 94 92 90 89 89 88 86 82 80 79 76 74 71 67 63 64 69 69 65 62 59 50 57
159 171 176 170 165 159 154 150 147 143 139 134 129 124 121 117 110 106 102 99 97 95 92 91 91 90 86 83 82 82 78 76 72 66 59 51 58 68 65 61 60 58 57
151 166 173 169 165 160 156 153 150 148 145 140 134 131 128 124 117 111 106 101 97 95 93 92 90 88 86 85 85 84 80 76 71 64 52 33 38 63 64 61 58 57 57
154 163 167 168 164 161 159 157 155 151 147 144 140 136 134 129 124 119 115 107 102 99 96 95 91 88 88 87 86 85 82 76 69 61 42 27 24 58 62 58 56 56 54
156 160 166 167 165 163 161 160 158 154 151 150 147 143 139 135 132 128 121 113 108 105 102 100 96 93 91 90 87 85 83 77 67 54 35 24 19 56 64 59 57 55 53
157 158 167 167 166 165 164 163 162 159 156 156 154 150 146 140 137 132 126 121 117 113 109 104 100 96 94 92 88 85 82 77 64 47 32 18 11 53 60 58 55 53 51
159 162 170 170 169 168 168 167 166 163 162 161 159 156 151 145 141 137 134 131 128 125 119 113 107 102 98 97 92 86 83 80 72 53 31 16 16 52 57 56 55 52 50
161 163 171 174 172 172 171 170 169 168 167 167 165 161 156 152 149 146 145 141 138 134 127 122 114 107 103 100 95 88 83 80 70 50 25 7 25 52 57 56 55 52 49
161 164 174 176 175 175 174 173 173 173 171 170 169 166 161 159 157 155 153 150 146 140 135 129 122 115 109 104 99 90 82 79 74 41 14 359 26 47 56 53 51 49 46
167 173 177 175 172 173 174 176 175 175 174 173 170 165 163 163 162 159 158 159 155 149 146 139 130 122 110 104 100 92 83 74 62 35 4 342 17 42 52 51 48 46 42
184 187 184 178 173 170 171 177 174 176 176 175 169 164 157 147 145 151 159 169 168 165 161 154 141 122 97 90 91 87 77 68 57 14 332 321 0 36 44 46 41 36 35
192 192 189 183 177 170 175 171 168 170 171 165 156 156 144 142 146 149 171 180 181 176 171 165 142 104 79 62 67 75 69 66 45 331 300 307 332 6 25 28 31 25 22
193 191 192 188 180 176 173 167 166 164 162 159 159 155 148 145 146 145 150 171 167 138 111 102 83 79 86 95 84 88 104 90 312 304 301 300 303 313 326 336 349 355 351
192 196 193 189 186 183 176 174 171 170 171 170 169 162 155 156 161 164 166 168 159 144 145 133 125 118 114 143 162 178 204 220 248 276 287 292 292 292 299 299 303 308 315
197 199 194 191 190 187 181 180 180 182 182 176 171 172 167 169 175 176 178 178 180 170 172 174 177 189 204 215 208 202 227 236 246 257 283 286 286 283 280 284 290 297 298
202 201 195 194 194 189 189 189 187 187 183 178 180 181 178 177 177 178 184 186 191 186 183 182 190 194 206 209 231 227 233 241 244 251 258 285 285 277 273 275 285 292 295
202 199 198 196 194 193 195 194 190 188 185 188 189 185 185 184 182 182 186 194 198 186 179 176 185 176 195 210 237 241 237 240 244 249 253 255 277 283 274 271 277 284 287
199 197 200 197 195 197 198 195 193 190 190 193 191 189 191 191 186 184 191 201 192 176 175 178 177 183 203 211 232 245 242 246 248 247 248 248 248 260 274 273 275 278 283
201 198 198 198 196 198 198 196 194 190 194 195 191 193 195 195 191 189 197 200 181 178 183 187 183 181 200 215 227 245 248 247 250 246 243 241 237 238 245 270 275 278 281
202 198 199 201 199 195 194 191 189 193 199 196 197 200 196 196 193 192 197 194 179 180 186 187 188 187 196 200 224 256 257 251 246 241 242 241 237 236 236 245 262 277 276
201 197 199 201 199 190 189 192 194 201 201 201 204 202 199 197 194 194 198 190 185 192 195 189 179 187 201 162 156 293 288 253 244 242 235 237 241 238 234 237 237 241 267
205 202 200 203 198 193 195 195 195 192 198 201 200 201 201 199 196 197 198 194 191 194 194 190 179 175 189 172 166 178 304 316 290 247 232 232 239 238 242 241 238 239 241
210 206 203 203 199 197 194 184 171 164 164 183 199 204 204 201 199 199 198 195 192 192 198 196 190 185 194 197 187 172 192 240 289 293 253 243 242 240 246 247 244 243 240
217 209 207 204 201 196 189 185 184 191 198 202 200 201 198 199 200 199 197 196 195 196 199 198 196 195 185 196 202 215 209 183 201 287 293 264 245 242 245 246 247 246 241
218 210 207 204 202 194 191 193 194 202 207 198 186 191 196 199 201 200 198 197 198 199 201 197 195 198 197 196 190 185 202 214 209 222 268 282 284 252 239 239 243 246 243
223 212 205 204 205 196 194 196 198 203 201 189 191 195 198 198 200 202 199 200 201 201 201 201 199 200 203 203 199 188 182 186 198 203 233 247 258 261 249 243 241 243 241